IBONHE1 Weather Reports


Display with metric or nautical units.
time (UTC)temp
F
wind
direction
speed
MPH
gust
MPH
rain 1hr
in
rain 24hr
in
rain mn
in
humidity
%
barometer
mb
20260506194526 52 186 0.0 5.0 0.00 0.03 0.02 76 1061.6
20260506193038 52 269 0.0 1.0 0.00 0.03 0.02 76 1061.5
20260506191522 52 214 0.0 3.0 0.00 0.03 0.02 76 1061.2
20260506190021 52 240 1.0 6.0 0.00 0.03 0.02 75 1061.0
20260506184520 52 257 0.0 3.0 0.00 0.03 0.02 75 1061.0
20260506183019 53 295 1.0 6.0 0.00 0.03 0.02 73 1060.9
20260506181533 54 271 1.0 5.0 0.00 0.03 0.02 71 1060.5
20260506180014 54 295 1.0 6.0 0.00 0.03 0.02 70 1060.4
20260506174512 55 41 2.0 7.0 0.00 0.03 0.02 68 1060.2
20260506173010 55 224 0.0 6.0 0.00 0.03 0.02 67 1060.0
20260506171514 56 321 2.0 4.0 0.00 0.03 0.02 66 1059.8
20260506170007 56 240 1.0 5.0 0.00 0.03 0.02 63 1059.6
20260506164505 57 89 2.0 6.0 0.00 0.03 0.02 61 1059.5
20260506163001 58 114 0.0 5.0 0.00 0.03 0.02 64 1059.3
20260506161559 57 292 3.0 7.0 0.00 0.03 0.02 64 1059.2
20260506160059 58 266 0.0 4.0 0.00 0.03 0.02 66 1059.2
20260506154613 58 90 1.0 6.0 0.00 0.03 0.02 65 1059.2
20260506153057 59 293 1.0 4.0 0.00 0.03 0.02 66 1059.1
20260506151555 59 276 1.0 8.0 0.00 0.03 0.02 64 1059.0
20260506150055 59 255 2.0 8.0 0.00 0.03 0.02 62 1058.9
20260506144558 59 303 0.0 8.0 0.00 0.03 0.02 62 1058.9
20260506143052 59 336 1.0 5.0 0.00 0.03 0.02 63 1058.8
20260506141555 59 207 1.0 6.0 0.00 0.03 0.02 61 1058.9
20260506140053 60 15 1.0 4.0 0.00 0.03 0.02 62 1058.9
20260506134550 60 263 0.0 5.0 0.00 0.03 0.02 63 1058.8
20260506133101 60 70 0.0 5.0 0.00 0.03 0.02 63 1058.8
20260506131546 60 288 1.0 4.0 0.00 0.03 0.02 65 1058.8
20260506130045 60 290 1.0 9.0 0.00 0.03 0.02 65 1058.8
20260506124541 59 278 1.0 5.0 0.00 0.03 0.02 69 1058.7
20260506123042 57 262 0.0 1.0 0.00 0.03 0.02 72 1058.7
20260506121539 57 270 2.0 6.0 0.00 0.03 0.02 71 1058.7
20260506120039 57 280 0.0 5.0 0.00 0.03 0.02 71 1058.6
20260506114541 57 28 1.0 6.0 0.00 0.04 0.02 73 1058.6
20260506113038 57 266 1.0 6.0 0.00 0.04 0.02 73 1058.6
20260506111536 56 312 2.0 5.0 0.00 0.04 0.02 74 1058.6
20260506110042 57 235 2.0 6.0 0.00 0.04 0.02 72 1058.7
20260506104559 58 56 1.0 6.0 0.00 0.04 0.02 73 1058.7
20260506103039 58 328 2.0 7.0 0.00 0.04 0.02 76 1058.8
20260506101532 57 352 1.0 6.0 0.00 0.04 0.02 79 1058.7
20260506100031 56 27 1.0 4.0 0.00 0.04 0.02 82 1058.7
20260506094532 56 329 1.0 6.0 0.00 0.04 0.02 84 1058.7
20260506093021 54 316 1.0 4.0 0.00 0.04 0.02 86 1058.7
20260506091518 53 330 1.0 5.0 0.00 0.04 0.02 89 1058.6
20260506090014 52 254 0.0 4.0 0.00 0.04 0.02 92 1058.5
20260506084512 51 317 1.0 4.0 0.00 0.04 0.02 93 1058.6
20260506083025 50 259 0.0 4.0 0.00 0.04 0.02 93 1058.4
20260506081510 50 208 0.0 3.0 0.00 0.04 0.02 93 1058.3
20260506073009 48 271 0.0 3.0 0.01 0.04 0.02 93 1058.2
20260506071509 49 357 0.0 5.0 0.01 0.04 0.02 93 1058.2
20260506061505 48 358 0.0 3.0 0.00 0.03 0.02 91 1058.0
20260506044612 48 270 1.0 4.0 0.00 0.03 0.02 89 1057.5
20260506043059 48 269 1.0 3.0 0.00 0.03 0.02 89 1057.6
20260506041556 49 224 0.0 1.0 0.00 0.03 0.02 89 1057.5
20260506040056 48 323 0.0 2.0 0.00 0.03 0.02 89 1057.5
20260506034600 49 231 0.0 5.0 0.00 0.05 0.02 88 1057.5
20260506033053 49 32 0.0 7.0 0.00 0.05 0.02 88 1057.6
20260506031555 49 260 0.0 2.0 0.00 0.05 0.02 87 1057.7
20260506030048 49 258 1.0 4.0 0.00 0.05 0.02 87 1057.8
20260506024548 49 340 0.0 3.0 0.00 0.09 0.02 87 1057.8
20260506023047 49 262 0.0 2.0 0.00 0.09 0.02 87 1057.9
20260506021553 49 316 0.0 3.0 0.00 0.09 0.02 87 1057.9
20260506020041 49 243 1.0 6.0 0.00 0.09 0.02 87 1058.0
20260506014540 49 322 0.0 5.0 0.00 0.09 0.02 87 1058.0
20260506013043 49 294 0.0 2.0 0.00 0.09 0.02 87 1058.0
20260506011544 49 339 0.0 2.0 0.00 0.09 0.02 88 1058.1
20260506010046 49 285 1.0 4.0 0.00 0.09 0.02 88 1058.0
20260506004533 49 140 1.0 5.0 0.01 0.09 0.02 89 1058.2
20260506003033 49 270 0.0 1.0 0.01 0.09 0.02 89 1058.3
20260506001531 50 262 0.0 1.0 0.01 0.09 0.02 89 1058.4
20260506000031 50 302 0.0 2.0 0.01 0.09 0.02 89 1058.4
20260505234544 50 270 0.0 3.0 0.00 0.10 0.01 89 1058.5
20260505233029 50 262 0.0 3.0 0.00 0.10 0.01 88 1058.5
20260505231528 50 340 0.0 1.0 0.00 0.10 0.01 88 1058.6
20260505230024 50 283 0.0 2.0 0.00 0.10 0.01 88 1058.7
20260505224529 51 266 0.0 2.0 0.01 0.19 0.01 88 1058.8
20260505223021 51 269 0.0 5.0 0.01 0.19 0.01 88 1058.9
20260505221520 51 260 0.0 5.0 0.02 0.19 0.01 88 1058.8
20260505220016 51 254 0.0 3.0 0.01 0.18 0.00 89 1058.9
20260505214515 51 283 0.0 3.0 0.01 0.37 0.18 90 1059.0
20260505213018 51 246 0.0 0.0 0.01 0.37 0.18 90 1058.9
20260505211532 52 259 0.0 0.0 0.00 0.36 0.17 91 1058.9
20260505210014 52 259 0.0 0.0 0.00 0.36 0.17 91 1059.0
20260505204513 52 259 0.0 0.0 0.00 0.56 0.17 90 1059.0
20260505203013 52 259 0.0 0.0 0.00 0.56 0.17 90 1059.0
20260505201512 52 260 0.0 0.0 0.00 0.56 0.17 90 1058.9
20260505200011 52 259 0.0 0.0 0.00 0.56 0.17 90 1058.8